Showing default

PELICAN-6 300D, 66703

Orbit data source: Space-Track

PELICAN-6 300D, 66703 is a payload satellite owned by Planet (US) in SSO that was launched on Fri, 28 Nov 2025 UTC via an FALCON 9 launch vehicle from the Air Force Western Test Range (AFWTR). Payload-class satellites include a variety of spacecraft equipped with specific instruments for various scientific and technological missions. These include communications satellites like Starlink; space stations such as the ISS; scientific satellites like the Hubble; Earth observation satellites from companies like Planet Labs, Umbra, and HawkEye 360; GPS; miniature CubeSats for education and research; and military/defense satellites.

Loading next visibility...
Identifier
66703, 2025-276AP
Orbit
SSO
Country
Flag of USUS
Related business
Manufacturer
Planet
Mission
Operational Commercial Imaging
Bus & Motor
PELICAN, XE AOCS
Mass
160 kg wet, 146 kg dry
Launch date (UTC)
2025-11-28 (7 months ago)
Launch vehicle
FALCON 9
Launch site
Air Force Western Test Range (AFWTR)
Object type
Payload
Rocket body
Debris
Shape & HBR
Box + 2 Pan, 1.0 m
Radar Cross Section
1.955 m², Large (>1 m²)

Expand to show TLE details & history
Last TLE update: 17 hours ago

TLE from 17 hours ago
0 PELICAN-6 300D
1 66703U 25276AP  26171.27040532  .00005876  00000-0  20313-3 0  9992
2 66703  97.3890 246.3877 0002544  73.7577 286.3943 15.30293683 31007
Epoch: 2026-06-20T06:29Z
TLE epoch observation values (Epoch: 2026-06-20T06:29:23.019Z)
Latitude
-0.00008°
Longitude
-119.44564°
Altitude
477.548 km
Speed
7.627 km/s
True Right ascension
16h 25m 33s
True Declination
0° 00' 00"
Sunlit
Object was in full shadow at epoch
Visualization orbit readout
Latitude
Unknown
Longitude
Unknown
Altitude
Unknown
Speed
Unknown
Apparent Right ascension
Unknown
Apparent Declination
Unknown
Sunlit
N/A
Visualization observer readout
Local Sidereal Time
10:20:33
Azimuth
Unknown
Elevation
Unknown
Doppler factor
Unknown
Orbital elements
Apogee altitude
473.629 km
Perigee altitude
470.144 km
Semi-major axis
6,850.024 km
Eccentricity
0.00025
Inclination
97.389°
RAAN
246.3877°
Arg. of periapsis
73.7577°
True anomaly
286.36633°
Mean anomaly
286.3943°
Eccentric anomaly
286.38032°
Mean motion
3.82829 °/min
Orbital period
94.04 mins
BSTAR
0.00020313
Loading maneuver chart data...
Computing Atmospheric mass density...
Loading historical data...
Loading historical data...
Loading historical data...
Loading historical data...
Loading historical data...
Loading historical data...
Loading historical data...

Documentation

Showing up to 5 results
|